Temperature
22 20 22 21 21 21 21 20 20 20 20 20 20 20 20 20 20 20 20 20 20 19 19 19 19 19 18 18 18 18 18 18 18 18 18 18 18 18 18 18 17 17 17
22 21 22 21 21 21 21 21 20 20 20 20 20 20 20 19 19 20 20 20 19 19 19 19 18 18 18 18 18 18 18 18 18 18 18 18 18 18 18 18 17 17 17
21 21 22 21 21 21 21 21 20 20 19 19 20 20 19 19 19 19 19 20 19 19 19 19 18 18 18 18 18 18 18 18 18 18 18 17 17 18 18 18 18 18 17
21 21 22 21 21 21 20 20 20 20 19 19 19 19 19 19 19 19 19 19 19 19 19 19 19 18 18 18 18 19 18 18 18 17 17 17 17 18 18 18 18 18 17
21 20 21 21 21 20 20 20 20 20 20 20 19 19 19 19 19 19 19 19 19 19 19 19 19 18 18 18 18 18 18 18 18 17 17 17 17 18 18 18 18 18 17
21 20 21 21 21 20 20 20 20 20 20 20 20 19 19 19 20 20 19 19 19 18 19 19 19 18 18 19 19 18 18 18 18 18 18 17 17 18 18 18 18 18 18
21 20 20 21 20 20 20 20 20 20 20 20 19 19 19 19 19 19 19 19 19 18 18 19 19 19 19 19 19 19 18 18 17 18 18 17 17 18 18 18 18 18 18
21 20 19 20 20 20 20 20 20 20 20 19 19 19 19 19 19 19 19 19 19 18 19 19 19 19 19 19 19 19 19 18 17 18 17 18 17 18 18 18 18 18 18
21 20 19 19 19 20 20 20 20 20 20 20 19 19 19 19 19 19 19 19 19 19 19 19 19 19 19 19 19 19 19 18 17 18 18 18 18 18 18 18 18 18 18
20 20 19 19 19 19 19 20 20 20 20 20 20 20 20 20 19 19 19 19 19 19 19 19 19 19 19 19 19 18 18 18 17 18 18 18 17 18 18 18 18 18 18
20 20 20 20 20 20 19 19 20 20 20 19 19 19 19 19 19 19 19 19 19 19 19 19 19 18 18 18 18 18 18 17 17 18 18 17 17 18 18 17 17 17 17
20 21 21 21 21 20 20 19 19 19 19 19 18 18 19 18 18 18 18 19 19 19 19 19 19 18 18 17 18 18 17 17 17 18 18 17 17 17 17 17 17 17 17
21 21 21 20 20 20 20 19 19 19 18 18 18 19 19 18 18 18 18 18 18 18 18 18 18 17 17 18 18 17 17 18 18 18 18 18 18 18 17 17 17 17 17
21 20 20 19 19 19 18 18 18 18 18 18 18 18 18 18 18 18 18 18 18 18 18 17 17 17 17 17 17 17 18 18 18 18 18 18 18 18 17 17 17 17 17
19 19 18 18 18 18 18 18 18 18 18 18 18 18 18 18 18 18 18 17 17 17 17 17 17 17 17 17 17 17 18 18 18 18 17 18 18 18 17 17 17 17 17
18 17 18 17 17 18 18 18 18 17 18 18 18 17 17 17 17 17 17 17 17 17 17 17 17 17 17 17 17 17 17 18 18 17 17 17 18 18 17 17 17 17 17
17 17 17 17 18 18 18 18 17 17 17 17 17 17 17 17 17 17 17 17 17 17 17 17 17 17 17 17 17 17 17 17 17 17 17 17 17 17 18 17 17 17 17
17 17 17 17 17 18 18 18 17 17 17 17 17 17 17 17 17 17 17 17 17 17 17 17 17 17 17 17 17 17 17 17 17 17 17 17 17 17 17 17 17 17 17
17 17 17 17 17 17 17 17 17 17 16 16 16 16 17 17 17 16 17 17 17 17 17 17 17 17 17 17 17 17 17 17 17 17 17 17 17 17 17 17 17 17 17
16 16 16 16 17 17 17 16 16 16 16 16 16 16 16 16 16 16 16 16 17 17 17 16 16 16 16 16 17 17 17 17 17 17 17 17 17 17 17 17 16 17 17
16 16 17 17 17 17 17 17 16 16 16 16 16 16 16 16 16 16 16 16 16 16 16 16 16 16 16 16 16 17 17 17 17 17 16 17 17 17 16 16 16 17 17
17 17 17 17 17 17 17 17 16 16 15 15 15 16 16 17 17 16 16 16 16 16 16 16 16 16 16 16 16 17 18 18 17 17 17 16 16 17 17 17 16 16 16
17 17 17 17 17 17 17 16 15 15 16 15 15 15 16 16 17 17 16 16 16 16 16 16 15 15 16 16 16 16 18 19 19 18 16 16 16 16 16 17 16 16 16
17 16 16 16 16 16 16 15 15 15 15 14 14 14 14 15 16 16 16 16 16 16 16 16 15 15 15 16 16 15 16 17 17 19 17 16 16 16 16 16 16 16 16
16 16 16 16 16 16 16 15 15 15 15 15 14 14 14 14 14 15 15 16 16 16 16 16 15 15 15 15 16 16 15 15 15 16 18 17 16 16 16 16 16 16 16
16 16 15 15 15 14 14 14 14 14 14 14 14 14 14 14 14 14 14 15 15 15 15 15 15 15 15 15 15 16 16 16 16 16 17 17 17 17 16 16 16 16 16
Wind_Speed
14 19 23 19 18 17 16 14 12 13 15 17 17 16 16 15 15 14 13 12 11 10 9 9 8 8 8 8 8 8 9 10 10 10 10 9 9 9 9 9 7 10 13
16 21 23 19 18 16 15 14 13 12 13 15 15 15 15 14 14 13 13 12 11 10 9 9 8 8 8 8 8 8 9 9 9 9 9 10 9 9 8 6 1 11 11
18 20 21 19 17 15 14 13 13 12 12 13 13 14 13 13 12 12 12 11 10 9 8 8 7 7 7 7 7 7 8 8 8 9 9 9 11 9 8 6 7 11 10
18 19 18 19 16 15 13 12 12 11 11 11 12 12 12 11 11 10 10 10 10 9 8 7 7 7 7 6 6 6 7 7 7 9 9 6 9 11 8 7 8 9 9
17 17 18 19 16 15 13 12 11 11 11 11 11 11 11 11 10 10 10 10 9 9 9 8 7 8 8 6 6 6 7 7 7 10 6 5 6 12 9 8 8 8 9
16 16 19 18 16 15 14 12 12 11 11 11 11 11 11 11 11 11 11 10 9 9 8 7 7 7 8 7 6 6 6 7 9 9 6 5 6 12 10 9 9 9 9
15 14 19 18 17 16 14 13 12 12 11 11 11 11 11 11 11 11 11 11 10 9 8 6 6 6 7 8 8 7 6 7 10 7 6 7 4 9 9 11 11 10 10
14 13 18 17 16 16 15 14 13 12 12 12 12 12 11 10 10 9 9 9 8 8 8 7 7 7 8 8 9 9 9 10 12 10 9 8 8 8 9 11 12 12 12
14 13 14 16 16 16 16 15 15 14 14 13 14 13 13 12 11 10 9 9 9 8 9 9 9 10 10 10 10 11 11 12 13 10 11 10 12 11 11 12 14 14 14
13 13 12 13 15 16 17 18 17 17 17 16 15 15 15 14 14 13 13 13 12 12 12 12 12 12 12 13 13 13 13 13 15 14 11 9 13 12 13 14 17 17 17
13 12 13 13 13 14 15 17 19 18 18 18 18 18 17 16 16 16 18 15 15 14 14 14 14 15 15 16 17 15 14 13 14 12 9 7 13 13 15 15 17 20 20
15 14 12 12 12 12 11 12 13 15 16 17 15 16 17 15 13 14 12 14 15 16 16 17 16 15 16 14 16 17 13 14 13 11 11 10 12 14 16 16 16 19 22
14 12 11 9 7 8 7 7 8 9 10 14 15 15 14 13 12 12 10 12 15 17 16 16 17 16 15 13 10 11 11 11 10 11 11 14 16 16 17 17 17 17 21
8 6 3 0 2 4 5 5 6 6 7 8 11 14 12 9 9 9 9 10 10 11 11 12 10 13 13 13 13 12 12 11 11 11 10 13 16 17 18 17 17 18 17
2 3 4 5 3 3 4 6 6 7 8 9 10 12 13 10 11 10 9 10 11 11 10 10 11 11 12 12 13 13 12 13 14 14 12 13 17 19 19 18 18 18 18
7 6 6 5 5 5 5 6 7 7 8 10 10 13 14 12 10 10 10 10 10 11 11 9 11 10 11 11 14 14 14 14 14 14 16 15 19 20 19 18 18 19 19
7 7 6 6 6 6 6 6 6 6 7 7 8 10 11 12 11 10 9 10 10 10 10 9 11 9 10 12 14 14 13 14 14 14 16 16 16 19 19 17 17 18 19
7 6 6 6 6 6 5 5 5 5 5 5 6 6 7 8 9 7 9 10 8 8 7 8 9 9 9 10 11 11 11 10 13 14 15 15 14 12 16 19 17 17 18
7 7 7 6 6 6 6 5 5 4 4 5 5 5 6 8 9 7 8 8 8 7 7 9 8 8 9 9 10 10 10 9 11 13 13 13 12 11 11 15 18 16 17
7 7 7 7 8 8 7 6 6 5 5 4 4 5 7 7 8 7 8 8 7 6 7 7 7 7 8 8 9 9 8 9 9 11 12 11 11 12 12 11 12 15 19
8 9 9 9 9 9 8 8 8 7 7 6 5 6 7 7 7 7 7 6 7 7 8 8 7 9 9 7 8 8 9 11 11 10 10 10 11 11 12 11 12 11 12
9 9 9 10 10 9 8 7 6 7 7 6 6 6 8 8 7 7 7 7 7 7 8 8 8 8 8 7 7 7 8 8 9 11 10 11 11 10 11 12 11 10 11
9 10 9 9 9 9 8 7 7 6 6 6 7 6 8 8 8 7 7 8 8 9 8 9 10 11 9 8 8 8 7 6 3 6 8 8 9 8 9 8 9 9 10
10 10 10 10 10 9 9 9 10 8 9 8 7 7 8 7 8 7 7 7 8 8 9 10 11 10 10 10 8 9 9 6 5 3 6 8 9 9 9 7 9 9 9
12 12 12 12 12 11 10 10 10 12 10 9 8 8 8 7 6 6 6 6 6 7 8 10 10 11 10 11 9 8 9 8 9 7 5 6 8 9 8 8 8 7 8
13 14 14 14 14 14 13 13 12 13 13 13 11 10 9 7 6 4 5 5 5 5 7 8 10 12 12 11 10 9 8 8 8 8 8 7 7 7 6 6 7 7 6
Wind_Direction
154 148 149 158 160 158 153 148 147 151 160 163 161 161 162 161 156 153 153 153 153 154 154 150 145 143 144 143 137 126 120 121 126 132 133 128 125 122 124 133 161 125 116
149 145 150 158 160 160 154 150 148 149 155 160 161 160 159 159 156 154 155 157 158 158 154 150 145 140 138 136 134 131 130 133 138 144 145 140 134 129 130 138 25 113 130
145 144 153 156 159 159 156 152 150 150 151 155 157 157 157 157 157 156 158 162 164 164 162 156 150 144 140 139 138 138 140 145 153 161 177 164 140 140 139 132 106 124 139
146 147 154 152 157 158 157 155 153 153 154 156 158 159 158 159 161 163 166 169 171 171 165 160 159 155 150 150 151 153 157 166 176 187 195 162 149 144 152 148 141 144 148
144 145 144 152 156 158 159 159 159 160 161 163 165 165 166 169 173 176 177 179 180 173 163 160 164 161 158 163 170 174 180 191 195 217 184 167 146 147 162 165 161 158 156
146 150 144 153 155 158 161 165 168 169 170 172 173 175 177 181 184 186 187 188 186 172 165 166 171 169 166 173 185 193 196 200 211 212 177 188 162 155 173 180 180 175 169
151 149 147 155 156 159 164 170 175 177 178 180 181 183 186 188 191 192 193 193 193 182 177 181 187 189 186 188 195 202 211 214 233 224 194 202 167 141 182 190 194 192 183
150 150 146 157 160 162 167 174 179 182 185 187 188 190 193 195 197 199 198 196 194 191 191 199 206 209 209 208 208 209 212 225 226 227 224 218 158 164 198 201 202 202 195
154 155 156 166 169 171 174 178 182 186 191 194 195 195 197 199 203 206 208 210 212 212 212 212 216 217 217 217 217 217 218 227 249 231 228 227 164 186 213 215 209 210 207
158 161 163 176 177 182 184 185 188 191 193 197 200 202 202 204 208 212 215 211 217 220 222 222 222 223 223 223 221 220 221 223 240 243 231 212 166 197 220 226 216 213 214
162 169 174 178 184 191 195 187 193 197 200 201 204 206 207 213 213 210 219 209 215 224 229 230 229 229 230 228 226 225 225 232 238 251 245 193 174 205 224 231 223 216 215
170 178 183 189 190 199 204 196 205 209 206 210 215 211 215 223 229 228 204 205 221 230 235 237 239 238 236 238 224 218 229 229 238 239 234 198 198 216 227 231 229 221 216
176 183 191 197 207 219 217 217 216 222 219 220 223 223 226 230 234 238 230 216 224 230 236 232 231 236 235 234 233 223 230 237 233 236 230 195 207 222 229 230 230 228 221
174 182 192 310 305 288 282 263 250 246 238 236 231 231 231 232 234 235 237 236 233 233 235 243 240 238 240 239 233 233 231 233 241 245 236 200 212 223 229 229 229 232 228
98 38 11 358 341 318 297 284 268 264 261 254 246 242 239 238 238 236 237 240 243 243 238 238 245 244 241 238 236 233 234 235 239 243 246 222 223 228 229 227 225 229 230
21 9 1 353 347 327 301 286 281 276 269 266 257 251 247 246 246 244 243 243 245 245 248 248 247 248 247 244 241 236 234 236 237 237 244 240 227 226 226 224 221 222 225
8 358 352 345 354 344 323 307 290 283 279 276 271 265 258 255 255 251 251 247 246 246 247 249 251 248 248 246 245 242 238 239 238 234 237 238 231 216 215 218 219 218 219
11 9 6 358 2 355 345 327 316 310 304 297 292 283 280 274 268 260 254 250 247 246 241 244 246 245 244 246 248 245 238 237 240 237 235 232 236 234 208 207 214 218 220
28 24 25 22 10 1 356 344 335 322 309 304 296 290 289 283 273 262 256 251 243 236 234 242 242 246 249 246 246 241 238 233 236 237 235 236 230 232 235 191 201 214 220
45 40 33 33 22 7 6 355 346 334 320 313 306 300 293 278 264 255 252 247 240 232 232 235 242 243 256 254 257 254 242 237 232 236 234 232 229 227 233 229 213 213 213
50 44 36 28 23 13 11 1 354 346 336 337 334 333 317 298 276 258 257 245 243 241 240 238 237 237 240 244 251 253 247 241 237 237 237 243 236 233 238 235 236 237 214
42 33 29 25 20 14 13 357 349 338 331 340 343 349 344 332 312 279 258 249 240 246 242 244 240 253 246 230 246 258 254 236 222 232 234 233 240 235 229 224 228 228 243
22 14 11 6 3 5 354 348 349 340 332 346 349 350 351 343 335 320 294 269 254 248 244 239 238 241 250 241 233 247 257 254 235 200 219 224 220 222 223 217 222 223 228
357 352 351 346 345 342 333 338 340 334 333 335 330 340 337 339 340 339 322 298 272 252 247 243 235 240 246 250 232 233 253 290 276 229 198 203 207 216 227 223 229 223 227
339 337 335 335 331 328 322 313 307 310 315 312 314 316 316 321 326 335 335 323 300 278 259 249 248 238 238 245 246 229 225 226 237 262 247 203 203 212 218 227 237 236 230
327 327 328 329 327 324 316 308 299 298 297 298 296 299 297 300 297 304 315 317 309 299 284 265 254 241 239 243 250 244 231 227 223 227 240 237 228 220 219 230 232 225 227
Height
1513 1514 1515 1519 1522 1524 1526 1529 1531 1534 1536 1538 1540 1542 1543 1545 1546 1547 1547 1548 1549 1550 1551 1553 1554 1555 1556 1557 1557 1558 1558 1559 1559 1559 1560 1560 1561 1561 1562 1563 1564 1566 1565
1513 1514 1517 1520 1523 1525 1527 1529 1532 1534 1537 1539 1541 1542 1544 1545 1546 1547 1548 1549 1550 1551 1552 1554 1555 1556 1557 1558 1558 1559 1559 1560 1560 1560 1561 1562 1562 1563 1564 1565 1566 1567 1567
1514 1515 1518 1521 1524 1527 1529 1531 1533 1535 1537 1539 1541 1543 1544 1545 1546 1547 1548 1549 1550 1551 1553 1554 1555 1557 1558 1558 1559 1559 1560 1561 1561 1562 1563 1565 1565 1565 1566 1566 1567 1568 1569
1516 1517 1520 1522 1525 1528 1530 1532 1534 1536 1538 1539 1541 1542 1544 1545 1546 1547 1548 1549 1550 1551 1553 1554 1555 1556 1558 1559 1559 1560 1561 1562 1562 1563 1565 1567 1567 1566 1567 1568 1569 1569 1570
1518 1520 1520 1523 1526 1529 1531 1533 1535 1537 1538 1540 1541 1542 1543 1545 1546 1547 1548 1549 1550 1552 1553 1554 1555 1556 1557 1559 1560 1560 1561 1562 1563 1564 1568 1568 1568 1567 1568 1569 1570 1571 1572
1520 1522 1521 1524 1527 1529 1531 1533 1535 1537 1538 1540 1541 1542 1543 1544 1545 1546 1548 1549 1550 1551 1553 1554 1555 1556 1557 1558 1559 1560 1561 1562 1563 1568 1569 1568 1569 1568 1568 1569 1570 1571 1573
1522 1524 1522 1524 1527 1529 1531 1533 1534 1536 1538 1539 1540 1541 1542 1544 1545 1546 1547 1548 1550 1551 1552 1553 1555 1556 1557 1558 1559 1560 1561 1562 1564 1567 1568 1569 1569 1567 1568 1569 1570 1571 1573
1522 1524 1523 1524 1526 1528 1530 1532 1533 1535 1537 1538 1539 1540 1542 1543 1544 1545 1546 1548 1549 1550 1551 1552 1553 1554 1556 1556 1557 1558 1560 1561 1564 1566 1567 1568 1567 1567 1568 1569 1570 1571 1572
1522 1524 1524 1525 1526 1527 1529 1530 1532 1534 1535 1537 1538 1539 1541 1542 1543 1544 1545 1546 1548 1549 1549 1550 1551 1553 1554 1555 1555 1557 1557 1559 1561 1564 1565 1566 1565 1565 1567 1568 1569 1570 1572
1521 1523 1523 1526 1527 1527 1528 1529 1531 1532 1534 1535 1537 1538 1539 1541 1542 1542 1543 1544 1546 1547 1547 1548 1549 1550 1551 1552 1553 1554 1555 1556 1558 1562 1562 1563 1561 1563 1565 1566 1567 1569 1570
1519 1522 1523 1525 1525 1527 1528 1528 1529 1530 1531 1533 1534 1535 1537 1538 1540 1540 1541 1542 1543 1544 1545 1545 1546 1547 1548 1549 1550 1551 1552 1553 1556 1557 1558 1558 1558 1560 1562 1563 1565 1566 1568
1519 1521 1522 1524 1525 1527 1528 1529 1529 1529 1529 1530 1532 1533 1534 1536 1538 1539 1539 1539 1540 1540 1541 1542 1543 1544 1545 1546 1547 1547 1548 1550 1551 1552 1553 1553 1555 1556 1558 1560 1561 1563 1564
1521 1522 1523 1525 1526 1528 1528 1527 1527 1527 1527 1527 1528 1530 1531 1532 1533 1535 1535 1535 1535 1536 1537 1538 1539 1540 1541 1542 1543 1543 1544 1546 1547 1548 1549 1549 1551 1552 1554 1555 1557 1559 1561
1524 1525 1526 1526 1525 1525 1525 1525 1525 1525 1525 1525 1525 1525 1527 1527 1528 1529 1530 1531 1531 1532 1532 1534 1534 1535 1536 1537 1538 1538 1539 1540 1542 1543 1544 1544 1546 1548 1549 1551 1553 1555 1556
1525 1524 1523 1522 1522 1521 1521 1522 1522 1522 1522 1522 1521 1521 1522 1522 1523 1524 1525 1526 1527 1528 1528 1528 1529 1530 1531 1531 1532 1533 1533 1534 1535 1537 1538 1539 1541 1542 1544 1545 1547 1550 1551
1522 1522 1522 1521 1521 1519 1518 1518 1518 1517 1517 1517 1516 1516 1517 1518 1519 1519 1520 1520 1521 1522 1522 1523 1524 1524 1525 1526 1526 1527 1527 1528 1529 1530 1532 1533 1535 1536 1538 1540 1542 1544 1546
1522 1522 1521 1520 1519 1517 1516 1515 1514 1513 1513 1512 1512 1511 1512 1513 1514 1514 1514 1515 1516 1516 1517 1518 1518 1519 1519 1520 1520 1521 1521 1522 1523 1524 1526 1528 1530 1531 1532 1534 1536 1539 1541
1522 1521 1520 1519 1517 1515 1514 1512 1511 1510 1510 1509 1508 1508 1508 1508 1509 1509 1510 1511 1511 1511 1512 1513 1514 1514 1515 1515 1515 1515 1515 1516 1517 1519 1521 1523 1525 1527 1527 1528 1531 1533 1535
1522 1520 1519 1517 1516 1515 1513 1511 1510 1509 1508 1507 1507 1506 1505 1505 1506 1505 1506 1506 1506 1507 1508 1509 1510 1510 1511 1511 1511 1511 1511 1512 1513 1515 1516 1518 1520 1521 1523 1523 1524 1527 1529
1522 1520 1519 1518 1516 1514 1513 1512 1510 1509 1508 1507 1506 1504 1503 1503 1503 1502 1502 1502 1502 1503 1504 1505 1505 1506 1507 1508 1509 1509 1508 1509 1509 1511 1512 1514 1516 1517 1519 1520 1520 1522 1523
1523 1521 1520 1518 1516 1514 1512 1511 1510 1509 1507 1506 1504 1502 1501 1501 1500 1499 1499 1499 1499 1500 1501 1502 1502 1503 1504 1505 1506 1506 1506 1505 1506 1507 1508 1510 1511 1513 1514 1515 1517 1519 1519
1524 1522 1520 1518 1516 1514 1512 1510 1509 1507 1506 1504 1502 1499 1498 1497 1497 1497 1496 1496 1496 1497 1497 1497 1499 1501 1502 1502 1503 1503 1503 1503 1501 1502 1503 1504 1506 1508 1509 1511 1512 1513 1515
1524 1522 1520 1518 1516 1513 1511 1510 1508 1507 1505 1503 1500 1497 1495 1493 1493 1492 1492 1492 1492 1493 1494 1494 1496 1497 1499 1499 1499 1501 1500 1498 1498 1499 1499 1500 1501 1503 1505 1507 1508 1509 1510
1524 1521 1519 1516 1514 1512 1510 1508 1507 1505 1503 1500 1498 1495 1492 1490 1488 1487 1487 1487 1488 1489 1490 1490 1492 1494 1494 1496 1496 1496 1497 1497 1497 1496 1497 1497 1498 1500 1502 1503 1504 1505 1506
1522 1520 1517 1514 1512 1509 1507 1505 1503 1502 1500 1498 1495 1493 1490 1488 1485 1484 1483 1483 1483 1483 1484 1486 1487 1488 1490 1491 1493 1493 1493 1493 1495 1495 1494 1495 1496 1497 1498 1499 1500 1501 1502
1520 1518 1515 1512 1509 1506 1504 1502 1499 1497 1495 1493 1491 1489 1488 1486 1483 1481 1480 1479 1478 1478 1478 1479 1481 1482 1484 1486 1488 1489 1490 1490 1491 1492 1492 1493 1493 1494 1494 1495 1496 1497 1498